Regional Weather Roundup
Issued by NWS

Home | Current Version | Previous Version | Text Only | Print | Product List | Glossary Off
Versions: 1 2 3 4 5 6 7 8 9 10 11 12 13 14 15 16 17 18 19 20 21 22 23 24 25 26 27 28 29 30 31 32 33 34 35 36 37 38 39 40 41 42 43 44 45 46 47 48 49 50

000
ASUS43 KOAX 162010
RWRNE

WEATHER ROUNDUP FOR NEBRASKA
NATIONAL WEATHER SERVICE OMAHA NE
200 PM CST THU NOV 16 2017

NOTES: SATELLITE DATA IS BEING USED TO AUGMENT CLOUD COVER ABOVE
       12000 FEET.
       "FAIR" INDICATES FEW OR NO CLOUDS BELOW 12,000 FEET WITH NO
       SIGNIFICANT WEATHER AND/OR OBSTRUCTIONS TO VISIBILITY.


NEZ001>004-019>022-054>056-162100-
NEBRASKA PANHANDLE

CITY           SKY/WX    TMP DP  RH WIND       PRES   REMARKS
SCOTTSBLUFF    SUNNY     76  23  14 SW23G31   29.66F
ALLIANCE       CLOUDY    63  30  28 S13       29.68F
CHADRON        CLOUDY    74  24  15 SW17G28   29.59F
GORDON         FAIR      69  27  20 SW15      29.64S
KIMBALL        CLOUDY    69  23  17 S12       29.75F
SIDNEY         SUNNY     71  20  14 SW17      29.74F
$$

NEZ057>060-069>072-079>082-162100-
SOUTHWEST NEBRASKA

CITY           SKY/WX    TMP DP  RH WIND       PRES   REMARKS
NORTH PLATTE   SUNNY     58  32  37 S15       29.79F
LEXINGTON      SUNNY     58  32  36 S22G29    29.83F
MCCOOK         SUNNY     63  34  33 S20G31    29.80F
OGALLALA       SUNNY     60  29  31 SE7       29.76F
$$

NEZ005>010-023>029-035>040-094-162100-
NORTH CENTRAL NEBRASKA

CITY           SKY/WX    TMP DP  RH WIND       PRES   REMARKS
VALENTINE      SUNNY     62  29  28 S21G28    29.67F
AINSWORTH      SUNNY     56  32  39 S24G32    29.71F
BROKEN BOW     SUNNY     56  33  42 S22G31    29.80F
O`NEILL        CLOUDY    54  32  43 S25G36    29.80F
ORD            SUNNY     55  31  39 S25G41    29.83F
THEDFORD       SUNNY     58  31  36 S23       29.75F
$$

NEZ041-046>049-061>064-073>077-083>087-162100-
SOUTH CENTRAL NEBRASKA

CITY           SKY/WX    TMP DP  RH WIND       PRES   REMARKS
GRAND ISLAND   SUNNY     55  31  39 S26G35    29.90F
AURORA         SUNNY     54  31  41 S22G30    29.92F
HASTINGS       SUNNY     53  31  42 S18G32    29.92F
HEBRON         SUNNY     57  30  36 S20G29    29.96F
HOLDREGE       SUNNY     56  35  43 S21G32    29.85F
KEARNEY        SUNNY     57  32  38 S26G35    29.86F
YORK           SUNNY     54  32  43 S21G28    29.94F
$$

NEZ011>018-030>034-042>045-162100-
NORTHEAST NEBRASKA

CITY           SKY/WX    TMP DP  RH WIND       PRES   REMARKS
NORFOLK        SUNNY     51  29  42 SE20G31   29.90F
ALBION         SUNNY     52  32  45 S25G31    29.90F
BLAIR          SUNNY     47  28  48 SE12      30.03F
COLUMBUS       SUNNY     52  29  41 S20G28    29.94F
FREMONT        SUNNY     47  28  47 SE16      30.01F
TEKAMAH        SUNNY     46  26  45 SE16      30.03F
WAYNE          CLOUDY    46  24  41 SE21G28   29.96F
$$

NEZ050>053-065>068-078-088>093-162100-
SOUTHEAST NEBRASKA

CITY           SKY/WX    TMP DP  RH WIND       PRES   REMARKS
LINCOLN        MOSUNNY   51  30  44 SE16      30.02F
OMAHA EPPLEY   MOSUNNY   47  27  45 SE13      30.06F
BEATRICE       SUNNY     54  32  43 S18       30.01F
FALLS CITY     SUNNY     50  30  46 SE12      30.07F
NEBRASKA CITY  SUNNY     46  29  53 SE14      30.06F
PLATTSMOUTH    SUNNY     47  30  51 SE10G17   30.05F
$$

NEZ044-045-051>053-067-162100-
OMAHA AREA

CITY           SKY/WX    TMP DP  RH WIND       PRES   REMARKS
OMAHA EPPLEY   MOSUNNY   47  27  45 SE13      30.06F
BLAIR          SUNNY     47  28  48 SE12      30.03F
FREMONT        SUNNY     47  28  47 SE16      30.01F
MILLARD        CLOUDY    49  29  47 SE14      30.04F
OFFUTT AFB     SUNNY     47  27  45 SE14      30.05F
PLATTSMOUTH    SUNNY     47  30  51 SE10G17   30.05F
WAHOO          FAIR      49  27  42 SE20      30.01F
$$




USA.gov is the U.S. government's official web portal to all federal, state and local government web resources and services.